Previsão horária em Celle

Hoje, 31 Julho, Sábado

Tempo Temperatura Precipitação Vento Pressão Humidade
00:00 +17°C° 0.3 mm 3 m/s 750 mmHg 88%
01:00 +16°C° 0.3 mm 3 m/s 750 mmHg 91%
02:00 +16°C° 0 mm 3 m/s 750 mmHg 90%
03:00 +15°C° 0 mm 4 m/s 750 mmHg 89%
04:00 +14°C° 0 mm 5 m/s 750 mmHg 88%
05:00 +14°C° 0 mm 5 m/s 750 mmHg 86%
06:00 +14°C° 0 mm 5 m/s 750 mmHg 84%
07:00 +15°C° 0 mm 5 m/s 750 mmHg 81%
08:00 +15°C° 0 mm 6 m/s 750 mmHg 77%
09:00 +16°C° 0 mm 7 m/s 750 mmHg 73%
10:00 +17°C° 0 mm 7 m/s 750 mmHg 68%
11:00 +18°C° 0.1 mm 7 m/s 750 mmHg 68%
12:00 +18°C° 0.1 mm 7 m/s 751 mmHg 68%
13:00 +18°C° 0.1 mm 8 m/s 751 mmHg 68%
14:00 +20°C° 0.3 mm 7 m/s 751 mmHg 70%
15:00 +20°C° 0.3 mm 7 m/s 751 mmHg 72%
16:00 +20°C° 0.3 mm 7 m/s 751 mmHg 74%
17:00 +19°C° 0.2 mm 6 m/s 751 mmHg 75%
18:00 +19°C° 0.2 mm 6 m/s 751 mmHg 77%
19:00 +19°C° 0.2 mm 5 m/s 752 mmHg 79%
20:00 +18°C° 0 mm 4 m/s 752 mmHg 83%
21:00 +17°C° 0 mm 4 m/s 752 mmHg 88%
22:00 +16°C° 0 mm 3 m/s 752 mmHg 92%
23:00 +14°C° 0 mm 3 m/s 752 mmHg 93%

Amanhã, 1 Agosto, Domingo

Tempo Temperatura Precipitação Vento Pressão Humidade
00:00 +14°C° 0 mm 3 m/s 753 mmHg 94%
01:00 +14°C° 0 mm 3 m/s 753 mmHg 95%
02:00 +13°C° 0 mm 3 m/s 752 mmHg 96%
03:00 +13°C° 0 mm 3 m/s 752 mmHg 96%
04:00 +14°C° 0 mm 2 m/s 752 mmHg 97%
05:00 +13°C° 0 mm 3 m/s 752 mmHg 94%
06:00 +14°C° 0 mm 3 m/s 752 mmHg 90%
07:00 +16°C° 0 mm 3 m/s 753 mmHg 87%
08:00 +17°C° 0 mm 4 m/s 753 mmHg 81%
09:00 +18°C° 0 mm 4 m/s 753 mmHg 75%
10:00 +20°C° 0 mm 4 m/s 753 mmHg 69%
11:00 +20°C° 0.2 mm 4 m/s 753 mmHg 68%
12:00 +20°C° 0.2 mm 4 m/s 752 mmHg 67%
13:00 +21°C° 0.2 mm 4 m/s 752 mmHg 66%
14:00 +20°C° 0.3 mm 4 m/s 752 mmHg 67%
15:00 +20°C° 0.3 mm 3 m/s 752 mmHg 68%
16:00 +20°C° 0.3 mm 3 m/s 752 mmHg 69%
17:00 +20°C° 0.5 mm 2 m/s 752 mmHg 73%
18:00 +19°C° 0.5 mm 2 m/s 752 mmHg 77%
19:00 +19°C° 0.5 mm 2 m/s 752 mmHg 81%
20:00 +19°C° 0.4 mm 1 m/s 752 mmHg 85%
21:00 +18°C° 0.4 mm 1 m/s 753 mmHg 89%
22:00 +16°C° 0.4 mm 1 m/s 753 mmHg 93%
23:00 +15°C° 0.2 mm 1 m/s 753 mmHg 94%

Depois de amanhã, 2 Agosto, Segunda-feira

Tempo Temperatura Precipitação Vento Pressão Humidade
00:00 +15°C° 0.2 mm 1 m/s 753 mmHg 94%
01:00 +15°C° 0.2 mm 1 m/s 753 mmHg 95%
02:00 +15°C° 0 mm 1 m/s 753 mmHg 94%
03:00 +15°C° 0 mm 1 m/s 754 mmHg 93%
04:00 +14°C° 0 mm 2 m/s 754 mmHg 93%
05:00 +15°C° 0 mm 2 m/s 754 mmHg 90%
06:00 +15°C° 0 mm 2 m/s 755 mmHg 88%
07:00 +15°C° 0 mm 2 m/s 755 mmHg 86%
08:00 +16°C° 0 mm 3 m/s 755 mmHg 80%
09:00 +17°C° 0 mm 3 m/s 755 mmHg 74%
10:00 +18°C° 0 mm 3 m/s 756 mmHg 67%
11:00 +18°C° 0.1 mm 4 m/s 756 mmHg 64%
12:00 +19°C° 0.1 mm 4 m/s 756 mmHg 61%
13:00 +20°C° 0.1 mm 5 m/s 756 mmHg 58%
14:00 +20°C° 0 mm 4 m/s 756 mmHg 56%
15:00 +20°C° 0 mm 4 m/s 756 mmHg 54%
16:00 +21°C° 0 mm 4 m/s 756 mmHg 52%
17:00 +20°C° 0 mm 3 m/s 756 mmHg 57%
18:00 +19°C° 0 mm 3 m/s 756 mmHg 61%
19:00 +19°C° 0 mm 2 m/s 756 mmHg 65%
20:00 +17°C° 0 mm 2 m/s 756 mmHg 71%
21:00 +16°C° 0 mm 1 m/s 756 mmHg 76%
22:00 +14°C° 0 mm 1 m/s 757 mmHg 81%
23:00 +14°C° 0 mm 1 m/s 757 mmHg 83%

3 Agosto, Terça-feira

Tempo Temperatura Precipitação Vento Pressão Humidade
00:00 +13°C° 0 mm 0 m/s 757 mmHg 85%
01:00 +12°C° 0 mm 0 m/s 757 mmHg 87%
02:00 +12°C° 0 mm 0 m/s 757 mmHg 87%
03:00 +12°C° 0 mm 0 m/s 757 mmHg 88%
04:00 +13°C° 0 mm 1 m/s 757 mmHg 89%
05:00 +14°C° 0 mm 1 m/s 757 mmHg 84%
06:00 +15°C° 0 mm 1 m/s 757 mmHg 80%
07:00 +16°C° 0 mm 1 m/s 757 mmHg 75%
08:00 +18°C° 0 mm 1 m/s 757 mmHg 71%
09:00 +19°C° 0 mm 1 m/s 757 mmHg 66%
10:00 +20°C° 0 mm 2 m/s 757 mmHg 61%
11:00 +22°C° 0.1 mm 1 m/s 756 mmHg 61%
12:00 +22°C° 0.1 mm 1 m/s 756 mmHg 60%
13:00 +23°C° 0.1 mm 1 m/s 755 mmHg 59%
14:00 +22°C° 0.8 mm 1 m/s 755 mmHg 65%
15:00 +21°C° 0.8 mm 1 m/s 755 mmHg 72%
16:00 +21°C° 0.8 mm 1 m/s 755 mmHg 78%
17:00 +20°C° 0.8 mm 1 m/s 755 mmHg 81%
18:00 +18°C° 0.8 mm 2 m/s 755 mmHg 84%
19:00 +18°C° 0.8 mm 2 m/s 755 mmHg 86%
20:00 +17°C° 0.1 mm 2 m/s 755 mmHg 89%
21:00 +16°C° 0.1 mm 2 m/s 755 mmHg 93%
22:00 +15°C° 0.1 mm 2 m/s 755 mmHg 96%
23:00 +15°C° 0 mm 1 m/s 755 mmHg 96%

4 Agosto, Quarta-feira

Tempo Temperatura Precipitação Vento Pressão Humidade
00:00 +15°C° 0 mm 1 m/s 755 mmHg 97%
01:00 +14°C° 0 mm 1 m/s 755 mmHg 97%
02:00 +14°C° 0 mm 1 m/s 755 mmHg 97%
03:00 +14°C° 0 mm 1 m/s 755 mmHg 97%
04:00 +14°C° 0 mm 1 m/s 755 mmHg 97%
05:00 +15°C° 0 mm 1 m/s 755 mmHg 95%
06:00 +15°C° 0 mm 1 m/s 755 mmHg 93%
07:00 +16°C° 0 mm 1 m/s 756 mmHg 91%
08:00 +18°C° 0.1 mm 1 m/s 756 mmHg 87%
09:00 +18°C° 0.1 mm 1 m/s 756 mmHg 84%
10:00 +18°C° 0.1 mm 2 m/s 756 mmHg 80%
11:00 +19°C° 0.4 mm 2 m/s 756 mmHg 75%
12:00 +20°C° 0.4 mm 2 m/s 756 mmHg 70%
13:00 +21°C° 0.4 mm 2 m/s 755 mmHg 64%
14:00 +23°C° 0.5 mm 2 m/s 755 mmHg 64%
15:00 +23°C° 0.5 mm 2 m/s 755 mmHg 63%
16:00 +23°C° 0.5 mm 2 m/s 755 mmHg 63%
17:00 +21°C° 0.6 mm 2 m/s 755 mmHg 68%
18:00 +20°C° 0.6 mm 2 m/s 755 mmHg 74%
19:00 +19°C° 0.6 mm 2 m/s 755 mmHg 80%
20:00 +18°C° 0 mm 2 m/s 756 mmHg 83%
21:00 +17°C° 0 mm 2 m/s 756 mmHg 86%
22:00 +16°C° 0 mm 2 m/s 756 mmHg 89%
23:00 +16°C° 0 mm 1 m/s 756 mmHg 90%

5 Agosto, Quinta-feira

Tempo Temperatura Precipitação Vento Pressão Humidade
00:00 +15°C° 0 mm 1 m/s 756 mmHg 91%
01:00 +15°C° 0 mm 1 m/s 756 mmHg 92%
02:00 +14°C° 0 mm 1 m/s 756 mmHg 92%
03:00 +14°C° 0 mm 1 m/s 755 mmHg 93%
04:00 +14°C° 0 mm 1 m/s 755 mmHg 93%
05:00 +15°C° 0 mm 1 m/s 755 mmHg 90%
06:00 +15°C° 0 mm 1 m/s 755 mmHg 87%
07:00 +16°C° 0 mm 1 m/s 755 mmHg 84%
08:00 +19°C° 0 mm 1 m/s 755 mmHg 76%
09:00 +19°C° 0 mm 2 m/s 755 mmHg 68%
10:00 +21°C° 0 mm 2 m/s 755 mmHg 59%
11:00 +23°C° 0 mm 2 m/s 754 mmHg 55%
12:00 +24°C° 0 mm 2 m/s 754 mmHg 51%
13:00 +25°C° 0 mm 2 m/s 753 mmHg 47%
14:00 +25°C° 0 mm 2 m/s 753 mmHg 46%
15:00 +26°C° 0 mm 2 m/s 753 mmHg 45%
16:00 +26°C° 0 mm 2 m/s 752 mmHg 44%
17:00 +25°C° 0 mm 2 m/s 752 mmHg 50%
18:00 +24°C° 0 mm 2 m/s 752 mmHg 56%
19:00 +23°C° 0 mm 2 m/s 752 mmHg 62%
20:00 +20°C° 0 mm 2 m/s 752 mmHg 66%
21:00 +19°C° 0 mm 2 m/s 752 mmHg 69%
22:00 +18°C° 0 mm 2 m/s 752 mmHg 73%
23:00 +17°C° 0 mm 2 m/s 752 mmHg 77%
Mostrar mais

Necessitamos do seu Consentimento

A Meteoprog e os seus Fornecedores de Serviços podem armazenar e aceder a dados pessoais como cookies, identificadores do dispositivo ou outras tecnologias semelhantes existentes no seu dispositivo e processar estes dados para personalizar conteúdos e anúncios, assim como funcionalidades nas redes sociais e análise de tráfego.

  • Armazenar e/ou aceder a informações no seu dispositivo

    Os cookies, identificadores do dispositivo ou outras informações podem ser armazenados ou acedidos no seu dispositivo, para os fins acima indicados.

  • Anúncios e conteúdos personalizados, medição de anúncios e conteúdos, dados sobre o público-alvo e desenvolvimento de produtos

    Os anúncios e os conteúdos podem ser personalizados com base num perfil. Podem ser adicionados dados adicionais para uma maior personalização dos anúncios e dos conteúdos. A eficácia dos anúncios e dos conteúdos pode ser medida. Podem ser obtidas informações sobre o público que visualizou os anúncios e os conteúdos. Estes dados podem ser usados para desenvolver ou melhorar sistemas, softwares ou a experiência do utilizador.

Ao clicar em "Eu concordo”, permitirá o uso de cookies, identificadores do dispositivo e web beacons mencionados ou outras tecnologias semelhantes. As configurações do navegador do seu dispositivo podem ser alteradas.

Para certos fins, podem ser invocados interesses legítimos ao invés de consentimento. Pode ler mais informação sobre este assunto na nossa Política de Privacidade e Cookies.